Tracking 22780 objects as of 11-Apr-2021
HD Live streaming from Space Station
objects crossing your sky now

WESTFORD NEEDLES

Track WESTFORD NEEDLES now!
10-day predictions
WESTFORD NEEDLES is classified as:


NORAD ID: 20504
Int'l Code: 1963-014FD
Perigee: 562.9 km
Apogee: 6,336.2 km
Inclination: 84.4 °
Period: 161.4 minutes
Semi major axis: 9820 km
RCS: 0.1216 m2 (medium)
Launch date: May 9, 1963
Source: United States (US)
Launch site: AIR FORCE WESTERN TEST RANGE (AFWTR)
aabbcc
Your satellite tracking list
Your tracking list is empty




NASA's NSSDC Master Catalog

Two Line Element Set (TLE):
1 20504U 63014FD  21100.98851567  .00013100  00000-0  13351-1 0  9997
2 20504  84.3842  39.5233 2939406 126.5127 264.3996  8.92070496894919
Source of the keplerian elements: AFSPC